Other Public Products
Issued by NWS Charleston, SC

Current Version | Previous Version | Text Only | Print | Product List | Glossary Off
Versions: 1 2 3 4 5 6 7 8 9 10 11 12 13 14 15 16 17 18 19 20 21 22 23 24 25 26 27 28 29 30 31 32 33 34 35 36 37 38 39 40 41 42 43 44 45 46 47 48 49 50
484 FPUS82 KCHS 251427 OPUCHS TEST...KCHS/KSAV Gateway Observations...TEST National Weather Service Charleston SC 900 AM EST SUN FEB 25 2018 NOTE: "fair" indicates few or no clouds below 12,000 feet with no significant weather and/or obstructions to visibility. SCZ050-WAZ558-NCZ071-TXZ119-213-PAZ071-DCZ001-FLZ074-172-MI076- NYZ176-178-MAZ016-IL014-TNZ027-NJZ106-GAZ044-MD014-251500- ...Gateway Observations for Charleston International... CITY SKY/WX TMP DP RH WIND PRES REMARKS Chas Airport FAIR 73 65 75 SW12 30.14R Seattle CLOUDY 41 40 96 S22G31 29.84F Charlotte FAIR 67 60 78 SW13 30.07R Dallas DFW CLOUDY 47 43 86 N6 30.04F Dallas Love PTSUNNY 44 41 89 CALM 30.07S Philladelphia LGT RAIN 45 44 97 E8 29.98S Wash National LGT RAIN 49 48 97 N3 30.02F FOG Baltimore LGT RAIN 45 45 100 CALM 29.99F FOG Miami FAIR 78 69 73 E12 30.19R Detroit PTSUNNY 42 34 73 W16 29.74R Newark RAIN 43 41 93 E9 30.07F Laguardia LGT RAIN 40 38 93 NE15 30.08F FOG WCI 32 J F K LGT RAIN 42 41 96 E21 30.07F FOG Boston Logan LGT RAIN 39 35 86 E16 30.25F WCI 30 Ft. Lauderdale FAIR 77 69 76 SE14 30.18R Chicago O`Hare PTSUNNY 34 25 69 W21G29 29.81R WCI 22 Chicago Midway PTSUNNY 35 28 75 SW17G29 29.83R WCI 25 Houston Bush CLOUDY 55 53 93 E14 29.99R Houston Hobby LGT RAIN 57 57 100 NE10 29.98S Nashville CLOUDY 52 43 71 NW9 30.07R Atlanta HVY RAIN 65 64 97 NW24G30 30.12R VSB 1 $$ GAZ044-118-TXZ119-213-NCZ071-DCZ001-MDZ014-506-PAZ021-071-NJZ106- NYZ176-178-MAZ106-OHZ011-021-055-MIZ076-KYZ091-ILZ014-INZ047- MNZ060-ONZ431-251500- ...Gateway Observations for Savannah International... CITY SKY/WX TMP DP RH WIND PRES REMARKS Savannah Arpt FAIR 71 65 81 SW10 30.16R Atlanta HVY RAIN 65 64 97 NW24G30 30.12R VSB 1 Charlotte FAIR 67 60 78 SW13 30.07R Dallas DFW CLOUDY 47 43 86 N6 30.04F Houston Bush CLOUDY 55 53 93 E14 29.99R Wash National LGT RAIN 49 48 97 N3 30.02F FOG Wash Dulles LGT RAIN 47 47 100 SE5 30.00F FOG Baltimore LGT RAIN 45 45 100 CALM 29.99F FOG Philadelphia LGT RAIN 45 44 97 E8 29.98S Newark RAIN 43 41 93 E9 30.07F Laguardia LGT RAIN 40 38 93 NE15 30.08F FOG WCI 32 J F K LGT RAIN 42 41 96 E21 30.07F FOG Boston LGT RAIN 39 35 86 E16 30.25F WCI 30 Pittsburg CLOUDY 59 53 80 SW13G25 29.77R Akron CLOUDY 52 41 66 W21G28 29.80R Cleveland PTSUNNY 47 38 71 W30G39 29.82R Cincinnati CLOUDY 45 37 73 W8 29.97R Columbus FAIR 47 39 74 W15G25 29.93R Detroit PTSUNNY 42 34 73 W16 29.74R Chicago O`Hare PTSUNNY 34 25 69 W21G29 29.81R WCI 22 Minneapolis FAIR 15 11 83 W14G20 29.68R WCI 0 Indianapolis PTSUNNY 37 32 82 SW15 30.00R WCI 28 Toronto Canada DRIZZLE 39 37 93 S6 29.56 WCI 35 $$

USA.gov is the U.S. government's official web portal to all federal, state and local government web resources and services.